Retour au catalogue

ONEWEB-0186

ActifCommunicationsPO
NORAD 48229·PAYLOAD·🇬🇧 United Kingdom

Lancé Apr 25, 2021 depuis Vostochny Cosmodrome

Loading…

Prochains Passages (prochaines 24 heures)

TLE

FraisSource: CelesTrak SupGP

Époque: Sep 15, 2026, 00:24 UTC

1 48229C 21031V   26258.01720322  .00000518  00000+0  14002-2 0  2582
2 48229  87.8909 271.7891 0001859  90.0491 294.2963 13.14505571    17

Suivez ONEWEB-0186 en temps réel avec AllMySat

Download on the App Store